Weather History for Windsor Locks, CT

Change the Weather History Date:

Sunday, November 4, 2012

  Actual Average Record
Temperature  
Mean Temperature 44 °F 46 °F  
Max Temperature 52 °F 56 °F 78 °F (1987)
Min Temperature 35 °F 36 °F 23 °F (1984)
Degree Days  
Heating Degree Days 21 19  
Month to date heating degree days 74 74  
Since 1 July heating degree days 453 603  
Cooling Degree Days 0 0  
Month to date cooling degree days 0 0  
Year to date cooling degree days 981 756  
Moisture  
Dew Point 29 °F    
Average Humidity 58    
Maximum Humidity 75    
Minimum Humidity 41    
Precipitation  
Precipitation 0.00 in 0.12 in 2.14 in (1955)
Month to date precipitation T 0.51  
Year to date precipitation 33.49 39.03  
Snow  
Snow 0.00 in 0.00 in T in (1972)
Month to date snowfall 0.0 0.1  
Since 1 July snowfall 0.0 0.1  
Since 1 September snowfall 0.0 0.1  
Snow Depth 0.00 in    
Sea Level Pressure  
Sea Level Pressure 29.91 in    
Wind  
Wind Speed 8 mph (NW)    
Max Wind Speed 18 mph    
Max Gust Speed 21 mph    
Visibility 10 miles    
Events      
T = Trace of Precipitation, MM = Missing Value Source: NWS Daily Summary

Daily Weather History Graph

Daily Weather History Graph

Search for Another Location

Airport:

Trip Planner

Search our weather history database for the weather conditions in past years. The results will help you decide how hot, cold, wet, or windy it might be!

Date:

Astronomy

Nov. 04, 2012 Rise Set
Actual Time 6:27 AM EST 4:40 PM EST
Civil Twilight 5:58 AM EST 5:09 PM EST
Nautical Twilight 5:25 AM EST 5:42 PM EST
Astronomical Twilight 4:52 AM EST 6:15 PM EST
Moon 9:15 PM EST (11/4) 11:10 AM EST (11/4)
Length of Visible Light 11h 11m
Length of Day
10h 13m
Waning Gibbous, 72% of the Moon is Illuminated
Nov 4
Waning Gibbous
Nov 6
Last Quarter
Nov 13
New
Nov 20
First Quarter
Nov 28
Full

Hourly Weather History & Observations

Time (EST) Temp. Windchill Dew Point Humidity Pressure Visibility Wind Dir Wind Speed Gust Speed Precip Events Conditions
12:51 AM 37.0 °F 32.4 °F 28.0 °F 70% 29.88 in 10.0 mi WNW 5.8 mph - N/A   Clear
1:51 AM 37.9 °F 31.5 °F 28.9 °F 70% 29.88 in 10.0 mi NW 9.2 mph - N/A   Partly Cloudy
1:51 AM 37.0 °F 31.6 °F 28.9 °F 73% 29.88 in 10.0 mi NW 6.9 mph - N/A   Partly Cloudy
2:51 AM 37.0 °F 31.0 °F 28.9 °F 73% 29.88 in 10.0 mi NW 8.1 mph - N/A   Clear
3:51 AM 37.0 °F 31.0 °F 28.9 °F 73% 29.88 in 10.0 mi NW 8.1 mph - N/A   Clear
4:51 AM 36.0 °F 33.3 °F 28.0 °F 73% 29.89 in 10.0 mi WNW 3.5 mph - N/A   Clear
5:51 AM 37.0 °F - 28.9 °F 73% 29.90 in 10.0 mi Calm Calm - N/A   Clear
6:51 AM 37.0 °F - 28.9 °F 73% 29.92 in 10.0 mi Calm Calm - N/A   Partly Cloudy
7:51 AM 41.0 °F 37.1 °F 28.9 °F 62% 29.93 in 10.0 mi NW 5.8 mph - N/A   Partly Cloudy
8:51 AM 44.1 °F 40.8 °F 30.0 °F 58% 29.94 in 10.0 mi NW 5.8 mph - N/A   Scattered Clouds
9:51 AM 46.0 °F 42.5 °F 28.9 °F 51% 29.93 in 10.0 mi Variable 6.9 mph - N/A   Partly Cloudy
10:51 AM 48.0 °F - 28.9 °F 48% 29.92 in 10.0 mi NNW 8.1 mph 16.1 mph N/A   Partly Cloudy
11:51 AM 50.0 °F - 28.9 °F 44% 29.90 in 10.0 mi NNW 10.4 mph 17.3 mph N/A   Partly Cloudy
12:51 PM 51.1 °F - 28.9 °F 43% 29.89 in 10.0 mi WNW 8.1 mph - N/A   Partly Cloudy
1:51 PM 52.0 °F - 28.9 °F 41% 29.88 in 10.0 mi NW 10.4 mph - N/A   Partly Cloudy
2:51 PM 50.0 °F - 28.9 °F 44% 29.90 in 10.0 mi WNW 16.1 mph - N/A   Partly Cloudy
3:51 PM 46.0 °F 39.6 °F 28.0 °F 50% 29.92 in 10.0 mi NW 15.0 mph 19.6 mph N/A   Partly Cloudy
4:51 PM 42.1 °F 36.1 °F 28.0 °F 58% 29.94 in 10.0 mi NW 10.4 mph - N/A   Partly Cloudy
5:51 PM 39.0 °F 34.8 °F 28.0 °F 65% 29.95 in 10.0 mi NW 5.8 mph - N/A   Partly Cloudy
6:51 PM 39.9 °F 35.1 °F 28.0 °F 63% 29.95 in 10.0 mi NW 6.9 mph - N/A   Mostly Cloudy
7:51 PM 42.1 °F 37.1 °F 28.0 °F 58% 29.95 in 10.0 mi NW 8.1 mph - N/A   Overcast
8:51 PM 42.1 °F 36.6 °F 28.0 °F 58% 29.96 in 10.0 mi NW 9.2 mph - N/A   Overcast
9:51 PM 42.1 °F 37.1 °F 28.0 °F 58% 29.95 in 10.0 mi NW 8.1 mph - N/A   Mostly Cloudy
10:51 PM 41.0 °F 35.2 °F 28.0 °F 60% 29.95 in 10.0 mi NW 9.2 mph - N/A   Mostly Cloudy